Location: Hyderabad
(17.3833°N, 78.4667°E)
Time: 10:00:45
(UTC+05:30)

Daily predictions for brighter satellites

Satellite Brightness Start Highest point End
(mag) Time Altitude Azimuth Time Altitude Azimuth Time Altitude Azimuth
GPS 2-12 Rocket1 3.0 18:35:40 10° W 18:40:06 85° S 18:44:33 10° ESE
YAOGAN 1 4.4 18:36:36 10° SSW 18:40:36 38° W 18:44:37 10° NNW
GOES 2 Rocket 4.4 18:39:50 10° NW 18:44:08 27° N 18:47:51 10° ENE
Meteosat 1 Rocket2 2.7 18:40:47 10° WNW 18:44:21 60° NNE 18:48:17 10° ESE
SJ-6B 3.9 18:44:39 10° SE 18:48:04 26° ENE 18:51:25 10° NNE
Cosmos 1484 Rocket 4.0 18:44:51 10° S 18:48:42 48° W 18:52:33 10° NNW
Cosmos 1140 Rocket 3.6 18:44:27 10° S 18:49:25 53° ESE 18:54:23 10° NNE
Skynet4D Del rocket 3.7 18:46:19 10° SW 18:51:37 59° SSE 18:56:38 11° ENE
FREGAT/IRIS 3.6 18:51:12 10° SE 18:53:51 27° ENE 18:56:30 10° NNE
Meteor 1-11 Rocket 4.0 18:51:55 10° SSE 18:57:18 47° E 19:02:49 10° NNE
Cosmos 44 Rocket 3.4 18:53:54 10° N 18:58:24 46° ENE 19:02:51 10° SE
Cosmos 1300 Rocket 3.7 18:56:15 10° SSE 19:00:28 50° E 19:04:43 10° NNE
Cosmos 614 Rocket 4.0 18:57:57 10° S 19:02:55 53° ESE 19:07:50 10° NNE
NOAA 12 4.0 19:00:29 10° SSE 19:05:44 71° ENE 19:11:01 10° N
Cosmos 1850 Rocket 4.3 19:01:06 10° S 19:06:05 46° ESE 19:11:07 10° NNE
METEOR-M 4.1 19:02:11 10° SSE 19:07:30 72° ENE 19:12:49 10° N
Cosmos 2219 3.6 19:02:44 10° S 19:08:08 43° ESE 19:13:31 10° NE
Hubble Space Telescope 0.8 19:05:11 10° WSW 19:09:17 71° SSE 19:12:01 20° ENE
Cosmos 1536 3.3 19:08:28 10° SSE 19:12:09 36° E 19:15:49 10° NNE
Cosmos 1340 3.6 19:10:16 10° NNE 19:13:27 26° E 19:16:38 10° SE
ERBS 2.2 19:14:30 10° NNW 19:17:56 69° ENE 19:20:41 15° SE
Cosmos 44 3.2 19:16:04 10° N 19:20:12 46° ENE 19:23:49 13° SE
Cosmos 2360 Rocket 3.6 19:21:11 10° NNE 19:23:47 18° NE 19:23:47 18° NE
Cosmos 1980 Rocket 4.0 19:20:43 10° NW 19:25:44 33° WSW 19:30:47 10° SSW
Cosmos 1461 4.2 19:25:10 10° N 19:27:26 22° NE 19:27:26 22° NE
PSLV R/B 3.9 19:26:04 10° NNW 19:28:44 33° NNE 19:28:44 33° NNE
Okean 1 Rocket 3.1 19:25:54 10° S 19:30:22 87° W 19:34:52 10° N
Okean 1 3.6 19:26:49 10° N 19:30:51 70° W 19:34:52 10° S
OAO 3 Rocket 3.8 19:29:40 10° SSW 19:34:16 40° SE 19:35:27 34° ESE
SL-08 ROCKET BODY 4.3 19:29:35 10° S 19:35:37 68° E 19:41:44 10° N
Cosmos 2327 Rocket 4.4 19:36:46 10° S 19:42:48 63° E 19:48:55 10° NNE
FengYun 1-2 T 4.1 19:39:36 10° SSE 19:45:04 84° ENE 19:50:33 10° N
Meteor 1-29 4.1 19:47:22 31° S 19:47:22 31° S 19:49:17 10° S
DNEPR-1 R/B 3.6 19:42:06 10° NNW 19:46:02 53° NE 19:46:02 53° NE
Ariane H10 4.0 19:44:28 10° SSW 19:46:15 14° S 19:46:38 14° SSE
ALOS 2.5 19:47:11 10° S 19:51:49 67° W 19:56:27 10° NNW
SL-8 R/B 3.6 19:47:16 10° NW 19:52:03 65° NE 19:52:19 63° ENE
CZ-3C R/B 1.1 19:49:06 10° W 19:53:16 47° NW 19:53:16 47° NW
SL-19 R/B 4.1 19:50:34 10° SSE 19:56:07 85° ENE 20:01:48 10° NNW
Cosmos 2181 Rocket 4.1 19:49:55 10° N 19:56:12 81° W 20:02:35 10° S
SL-16 R/B 2.7 19:52:51 10° NNW 19:58:24 58° WSW 20:03:55 10° S
Meteor 1-5 Rocket 4.3 19:54:20 10° S 20:00:17 85° W 20:06:15 10° N
Meteor 2-9 4.5 19:55:20 10° S 20:00:45 86° E 20:06:17 10° N
Cosmos 2074 Rocket 4.1 19:55:42 10° S 20:01:53 76° W 20:08:08 10° N
Cosmos 2184 Rocket 4.1 19:55:43 10° S 20:02:04 80° W 20:08:23 10° N
Atlas Centaur 2 2.9 19:55:52 10° SW 20:02:20 40° SSE 20:02:33 39° SSE
OTV 4 3.0 20:01:16 10° WSW 20:02:36 22° W 20:02:36 22° W
Helios 1B rocket 3.5 20:00:23 10° N 20:04:19 44° WNW 20:08:15 10° SSW
Meteor 1-19 Rocket 4.3 19:59:40 10° N 20:05:24 81° W 20:11:12 10° S
GPS 2-14 Rocket1 4.2 20:01:56 10° SW 20:04:30 30° SSW 20:04:30 30° SSW
Cosmos 2322 Rocket 3.7 20:11:28 10° NW 20:16:30 35° WSW 20:21:33 10° SSW
Resurs 01 Rocket 2.8 20:12:52 10° S 20:17:01 41° W 20:21:11 10° NNW
Hubble Space Telescope 3.9 20:46:59 10° W 20:47:25 12° WNW 20:47:25 12° WNW
Cosmos 2360 Rocket 4.4 21:03:59 10° NW 21:05:40 19° NW 21:05:40 19° NW
H-2A R/B 3.9 21:06:36 10° W 21:45:19 10° ENE 21:46:43 10° ENE
H-2A R/B 3.9 21:06:36 10° W 21:45:18 10° ENE 21:46:43 10° ENE
